Location: Piotrkow Trybunalski
(51.4000°N, 19.6830°E)
Time: 14:24:45
(UTC+01:00)

Vanguard 2 - Pass Details

Date: 12 February 2023
Orbit: 553 x 2927 km, 32.9° (Epoch: 24 March)

Event Time Altitude Azimuth Distance (km) Brightness Sun altitude
Rises 00:06:01 0° 264° (W) 5,634 - -52.4°
Reaches altitude 10° 00:10:18 10° 252° (WSW) 4,956 - -52.3°
Maximum altitude 00:21:24 26° 205° (SSW) 4,352 - -52.1°
Drops below altitude 10° 00:34:16 10° 158° (SSE) 5,748 - -51.6°
Sets 00:39:50 0° 147° (SSE) 6,686 - -51.4°
